Location: Drummondville
(45.8830°N, 72.4830°W)
Time: 12:03:50
(UTC-04:00)

Amateur Radio Satellites - All Passes

Search period start: 20 October 2017 11:33
Search period end: 21 October 2017 11:33
Location: Drummondville, 45.8830°N, 72.4830°W

Satellite Date Start Highest point End Downlink Frequencies (MHz)
Time Altitude Azimuth
NO-84 20 Oct 11:48:25 11:49:56 12° 236° (SW) 11:51:23 435.350 FM
BEESAT 3 20 Oct 11:49:36 11:52:47 23° 114° (ESE) 11:56:01 437.485
EO-79 20 Oct 11:49:49 11:54:06 82° 73° (ENE) 11:58:24 145.935-145.965
Gurwin Techsat 1B 20 Oct 11:50:35 11:51:36 11° 52° (NE) 11:52:37 435.225
POLYITAN 1 20 Oct 11:54:30 11:58:48 89° 268° (W) 12:03:08 437.675
EO-88 20 Oct 12:00:02 12:02:35 18° 294° (WNW) 12:05:07 145.990 - 145.960
M-CUBED/EXP-1 PRIME 20 Oct 12:01:08 12:02:18 11° 57° (ENE) 12:03:27 437.505
nSIGHT-1 20 Oct 12:04:22 12:07:26 42° 342° (NNW) 12:10:31 .
SPROUT 20 Oct 12:09:57 12:12:10 14° 89° (E) 12:14:22 437.525
Max Valier Satellite 20 Oct 12:10:44 12:11:59 11° 298° (WNW) 12:13:13 145.860
QB50P2 20 Oct 12:15:01 12:19:09 48° 261° (W) 12:23:20 145.880/145.840
NANOSAT C BR1 20 Oct 12:18:17 12:22:27 55° 260° (W) 12:26:40 145.865
AO-7 20 Oct 12:27:20 12:30:25 13° 36° (NE) 12:33:32 .
DUCHIFAT 1 20 Oct 12:29:09 12:33:15 48° 260° (W) 12:37:24 145.980
YUBILEINY 20 Oct 12:29:55 12:34:55 16° 307° (NW) 12:39:58 435.215
BUGSAT 1 20 Oct 12:37:03 12:41:09 56° 73° (ENE) 12:45:19 437.445
ISS 20 Oct 12:37:08 12:40:10 35° 347° (NNW) 12:43:13 437.550
LO-87 20 Oct 12:49:15 12:52:32 32° 290° (WNW) 12:55:47 145.935 - 145.965
RS-15 20 Oct 12:50:07 12:55:46 15° 267° (W) 13:01:19 29.354- 29.394
AO-85 20 Oct 12:51:45 12:54:37 20° 113° (ESE) 12:57:33 145.980
VELOX 1 20 Oct 12:52:54 12:56:40 26° 95° (E) 13:00:25 145.980
Oscar 19 20 Oct 12:54:34 12:59:29 47° 69° (ENE) 13:04:26 437.125/150
ESTCUBE 1 20 Oct 13:02:51 13:07:08 46° 290° (WNW) 13:11:25 437.505/2401.250
BEESAT 2 20 Oct 13:09:16 13:13:06 47° 120° (ESE) 13:17:01 435.950
Gurwin Techsat 1B 20 Oct 13:25:16 13:30:30 62° 71° (ENE) 13:35:45 435.225
BEESAT 3 20 Oct 13:26:20 13:30:08 40° 313° (NW) 13:33:58 437.485
EO-79 20 Oct 13:30:02 13:30:25 10° 273° (W) 13:30:48 145.935-145.965
50 SAT 20 Oct 13:33:04 13:35:20 17° 94° (E) 13:37:36 437.505
M-CUBED/EXP-1 PRIME 20 Oct 13:33:05 13:36:24 52° 254° (WSW) 13:39:37 437.505
nSIGHT-1 20 Oct 13:41:23 13:44:12 28° 2° (N) 13:47:02 .
SPROUT 20 Oct 13:44:12 13:48:28 62° 286° (WNW) 13:52:41 437.525
DX 1 20 Oct 13:59:09 14:03:06 32° 97° (E) 14:07:02 434.975-435.025
AO-7 20 Oct 14:13:24 14:21:05 44° 59° (ENE) 14:28:46 .
ISS 20 Oct 14:14:15 14:17:12 30° 7° (N) 14:20:09 437.550
BUGSAT 1 20 Oct 14:14:28 14:16:52 15° 270° (W) 14:19:16 437.445
SO-50 20 Oct 14:17:06 14:20:51 24° 38° (NE) 14:24:38 436.795
UKube-1 20 Oct 14:23:10 14:27:12 36° 98° (E) 14:31:11 .
VELOX 1 20 Oct 14:29:08 14:33:08 34° 292° (WNW) 14:37:08 145.980
AO-85 20 Oct 14:30:58 14:34:41 42° 313° (NW) 14:38:34 145.980
Oscar 19 20 Oct 14:34:51 14:39:02 24° 267° (W) 14:43:13 437.125/150
BEESAT 2 20 Oct 14:47:44 14:51:03 24° 319° (NW) 14:54:23 435.950
MOZHAYETS 4 20 Oct 15:01:37 15:04:22 16° 90° (E) 15:07:07
50 SAT 20 Oct 15:04:48 15:07:42 28° 290° (WNW) 15:10:34 437.505
ITAMSAT 1 20 Oct 15:06:14 15:11:15 52° 69° (ENE) 15:16:19 435.822/435.867
Gurwin Techsat 1B 20 Oct 15:07:08 15:10:53 19° 269° (W) 15:14:39 435.225
nSIGHT-1 20 Oct 15:17:47 15:20:56 53° 22° (NNE) 15:24:05 .
ITUPSAT 1 20 Oct 15:30:23 15:34:24 26° 94° (E) 15:38:23 437.325
DX 1 20 Oct 15:35:29 15:39:11 27° 294° (WNW) 15:42:53 434.975-435.025
BEESAT 20 Oct 15:45:35 15:50:01 36° 97° (E) 15:54:25 436.000
ISS 20 Oct 15:50:43 15:54:00 79° 28° (NNE) 15:57:17 437.550
DOVE 4 20 Oct 15:53:57 15:56:36 16° 61° (ENE) 15:59:19 437.250
SO-50 20 Oct 15:57:07 16:01:40 62° 238° (WSW) 16:06:16 436.795
UKube-1 20 Oct 15:59:33 16:03:02 24° 295° (WNW) 16:06:30 .
AO-7 20 Oct 16:05:48 16:13:46 50° 259° (W) 16:21:46 .
PCSat 20 Oct 16:09:49 16:14:24 27° 42° (NE) 16:18:59 145.827
AO-85 20 Oct 16:16:12 16:16:13 10° 336° (NNW) 16:16:14 145.980
MOZHAYETS 4 20 Oct 16:37:24 16:41:56 60° 288° (WNW) 16:46:24
ITAMSAT 1 20 Oct 16:47:00 16:51:01 22° 267° (W) 16:55:04 435.822/435.867
CUBESAT XI-V 20 Oct 16:48:47 16:53:11 42° 98° (E) 16:57:32 437.345
XW-2F 20 Oct 16:50:40 16:52:19 13° 62° (ENE) 16:53:58 145.980 - 146.000
nSIGHT-1 20 Oct 16:54:17 16:57:05 28° 219° (SW) 16:59:52 .
LilacSat-2 20 Oct 16:55:16 16:57:40 16° 64° (ENE) 17:00:04 437.200
XW-2D 20 Oct 17:02:02 17:04:40 18° 65° (ENE) 17:07:18 145.860 - 145.880
NUDT-PHONESAT 20 Oct 17:02:38 17:04:19 13° 63° (ENE) 17:05:59 437.300
ITUPSAT 1 20 Oct 17:07:52 17:12:20 39° 292° (WNW) 17:16:46 437.325
XW-2B 20 Oct 17:14:59 17:18:03 24° 67° (ENE) 17:21:07 145.730 - 145.750
CUTE-I 20 Oct 17:16:30 17:21:05 30° 64° (ENE) 17:25:42 437.470
BEESAT 20 Oct 17:23:34 17:27:39 29° 295° (WNW) 17:31:43 436.000
ISS 20 Oct 17:27:53 17:30:08 17° 224° (SW) 17:32:24 437.550
DOVE 4 20 Oct 17:29:43 17:33:49 55° 260° (W) 17:38:09 437.250
XW-2C 20 Oct 17:37:36 17:41:12 42° 72° (ENE) 17:44:48 145.795 - 145.815
HO-68 20 Oct 17:46:31 17:52:42 33° 59° (ENE) 17:58:55 435.675
PCSat 20 Oct 17:52:51 17:58:13 62° 243° (WSW) 18:03:32 145.827
CUBEBUG 2 20 Oct 17:58:07 18:00:30 14° 59° (ENE) 18:02:54 437.445
KKS-1 20 Oct 18:03:18 18:07:47 71° 103° (ESE) 18:12:15 437.445
KAITUO 1B 20 Oct 18:20:05 18:23:49 81° 257° (WSW) 18:27:34 145.475/437.950
XW-2F 20 Oct 18:22:14 18:25:58 59° 260° (W) 18:29:42 145.980 - 146.000
CUBESAT XI-V 20 Oct 18:26:41 18:30:18 23° 296° (WNW) 18:33:54 437.345
LilacSat-2 20 Oct 18:27:56 18:31:36 44° 261° (W) 18:35:17 437.200
CUTE 1.7 + AOD 2 20 Oct 18:30:01 18:33:55 37° 70° (ENE) 18:37:49 437.475
XW-2A 20 Oct 18:33:18 18:34:53 13° 64° (ENE) 18:36:28 145.665 - 145.685
NUDT-PHONESAT 20 Oct 18:34:04 18:37:43 56° 259° (W) 18:41:23 437.300
UWE-3 20 Oct 18:34:54 18:38:04 18° 62° (ENE) 18:41:14 435.000/436.395/437.385
XW-2D 20 Oct 18:35:02 18:38:35 38° 262° (W) 18:42:09 145.860 - 145.880
STARS 20 Oct 18:35:33 18:39:59 64° 102° (ESE) 18:44:22 437.465
SEEDS 20 Oct 18:37:07 18:40:42 28° 68° (ENE) 18:44:16 437.485
YUBILEINY 20 Oct 18:39:16 18:44:36 17° 54° (NE) 18:49:56 435.215
XW-2B 20 Oct 18:48:48 18:52:07 28° 264° (W) 18:55:25 145.730 - 145.750
CUTE-I 20 Oct 18:56:00 19:00:59 41° 262° (W) 19:06:02 437.470
AAUSAT CUBESAT 2 20 Oct 19:00:44 19:03:59 23° 66° (ENE) 19:07:14 437.432
XW-2C 20 Oct 19:13:16 19:15:35 16° 269° (W) 19:17:55 145.795 - 145.815
STRAND 1 20 Oct 19:21:46 19:25:39 21° 92° (E) 19:29:29 437.568
AO-73 20 Oct 19:25:07 19:28:55 27° 66° (ENE) 19:32:44 145.935
CUBEBUG 2 20 Oct 19:31:44 19:36:25 84° 259° (WSW) 19:41:13 437.445
HO-68 20 Oct 19:33:01 19:40:04 58° 258° (WSW) 19:47:10 435.675
AO-85 20 Oct 19:40:02 19:41:25 11° 27° (NNE) 19:42:49 145.980
KKS-1 20 Oct 19:41:16 19:43:47 15° 301° (WNW) 19:46:18 437.445
ZACube-1 20 Oct 19:46:37 19:51:00 47° 71° (ENE) 19:55:24 437.345
BEESAT 2 20 Oct 19:48:05 19:49:55 13° 31° (NNE) 19:51:43 435.950
BEESAT 3 20 Oct 20:03:14 20:06:52 32° 45° (NE) 20:10:26 437.485
XW-2A 20 Oct 20:03:55 20:07:13 45° 261° (W) 20:10:31 145.665 - 145.685
CUTE 1.7 + AOD 2 20 Oct 20:06:36 20:09:51 21° 267° (W) 20:13:08 437.475
UWE-3 20 Oct 20:09:27 20:14:03 60° 260° (W) 20:18:42 435.000/436.395/437.385
O/OREOS (USA 219) 20 Oct 20:10:15 20:13:56 25° 103° (ESE) 20:17:39 437.305
SEEDS 20 Oct 20:12:43 20:16:19 28° 265° (W) 20:19:56 437.485
STARS 20 Oct 20:13:08 20:15:49 16° 300° (WNW) 20:18:31 437.465
Oscar 11 20 Oct 20:23:03 20:27:21 68° 73° (ENE) 20:31:40 .
DELFI C3 20 Oct 20:26:54 20:29:24 17° 64° (ENE) 20:31:55 145.870
YUBILEINY 20 Oct 20:34:29 20:43:18 70° 79° (ENE) 20:52:05 435.215
AAUSAT CUBESAT 2 20 Oct 20:35:32 20:39:16 34° 263° (W) 20:43:02 437.432
FO-29 20 Oct 20:59:13 21:05:33 37° 96° (E) 21:12:25 435.910
STRAND 1 20 Oct 21:00:06 21:05:09 55° 290° (WNW) 21:10:10 437.568
AO-73 20 Oct 21:00:46 21:05:00 36° 263° (W) 21:09:13 145.935
EO-88 20 Oct 21:05:52 21:08:44 22° 67° (ENE) 21:11:36 145.990 - 145.960
Max Valier Satellite 20 Oct 21:15:43 21:19:12 38° 71° (ENE) 21:22:41 145.860
AO-85 20 Oct 21:18:36 21:22:53 43° 47° (NE) 21:27:29 145.980
ZACube-1 20 Oct 21:24:06 21:27:30 20° 268° (W) 21:30:55 437.345
BEESAT 2 20 Oct 21:24:26 21:28:28 62° 51° (NE) 21:32:26 435.950
BEESAT 3 20 Oct 21:40:53 21:44:22 29° 244° (WSW) 21:47:46 437.485
O/OREOS (USA 219) 20 Oct 21:48:50 21:53:08 40° 301° (WNW) 21:57:29 437.305
LO-87 20 Oct 21:55:49 21:57:16 12° 62° (ENE) 21:58:43 145.935 - 145.965
DELFI C3 20 Oct 22:00:04 22:03:49 45° 261° (W) 22:07:36 145.870
Oscar 11 20 Oct 22:02:01 22:03:57 13° 272° (W) 22:05:53 .
PRISM 20 Oct 22:05:14 22:06:38 11° 89° (E) 22:08:03 437.425
ESTCUBE 1 20 Oct 22:28:30 22:32:07 25° 65° (ENE) 22:35:45 437.505/2401.250
YUBILEINY 20 Oct 22:32:16 22:39:19 28° 279° (W) 22:46:23 435.215
EO-88 20 Oct 22:39:04 22:42:15 28° 264° (W) 22:45:26 145.990 - 145.960
UNISAT 6 20 Oct 22:40:37 22:45:16 67° 101° (ESE) 22:49:45 437.425
FO-29 20 Oct 22:44:10 22:50:40 51° 292° (WNW) 22:57:51 435.910
Max Valier Satellite 20 Oct 22:50:44 22:53:11 17° 268° (W) 22:55:37 145.860
RS-15 20 Oct 22:52:52 23:00:04 18° 95° (E) 23:07:16 29.354- 29.394
TIGRISAT 20 Oct 22:55:19 22:59:59 86° 105° (ESE) 23:04:30 435.000
AO-85 20 Oct 22:59:15 23:03:11 28° 244° (WSW) 23:07:20 145.980
BEESAT 2 20 Oct 23:03:25 23:05:43 15° 249° (WSW) 23:08:00 435.950
SPROUT 20 Oct 23:05:33 23:08:05 15° 61° (ENE) 23:10:37 437.525
LO-87 20 Oct 23:26:40 23:30:12 56° 260° (W) 23:33:47 145.935 - 145.965
EO-79 20 Oct 23:34:14 23:35:35 11° 88° (E) 23:36:55 145.935-145.965
PRISM 20 Oct 23:38:15 23:42:22 69° 286° (WNW) 23:46:28 437.425
POLYITAN 1 20 Oct 23:38:36 23:40:31 13° 89° (E) 23:42:24 437.675
VELOX 1 20 Oct 23:52:14 23:56:06 31° 67° (ENE) 00:00:00 145.980
QB50P2 20 Oct 23:57:44 00:01:07 22° 93° (E) 00:04:27 145.880/145.840
NANOSAT C BR1 21 Oct 00:00:41 00:03:47 19° 92° (E) 00:06:52 145.865
ESTCUBE 1 21 Oct 00:04:33 00:08:44 38° 262° (W) 00:12:56 437.505/2401.250
DUCHIFAT 1 21 Oct 00:10:59 00:14:18 22° 93° (E) 00:17:35 145.980
UNISAT 6 21 Oct 00:18:37 00:21:25 16° 300° (WNW) 00:24:09 437.425
AIST 2D 21 Oct 00:28:13 00:31:38 59° 286° (WNW) 00:35:03 435.315
FO-29 21 Oct 00:32:28 00:34:24 11° 311° (NW) 00:36:22 435.910
TIGRISAT 21 Oct 00:33:53 00:35:57 13° 302° (WNW) 00:37:58 435.000
SPROUT 21 Oct 00:39:16 00:43:30 61° 259° (W) 00:47:46 437.525
DX 1 21 Oct 00:56:43 01:00:43 38° 69° (ENE) 01:04:45 434.975-435.025
RS-15 21 Oct 00:58:03 01:10:11 69° 118° (ESE) 01:22:19 29.354- 29.394
Oscar 19 21 Oct 01:05:20 01:07:41 13° 88° (E) 01:10:01 437.125/150
EO-79 21 Oct 01:07:34 01:11:51 74° 285° (WNW) 01:16:05 145.935-145.965
POLYITAN 1 21 Oct 01:12:29 01:16:44 66° 286° (WNW) 01:20:56 437.675
UKube-1 21 Oct 01:19:34 01:23:37 42° 70° (ENE) 01:27:42 .
VELOX 1 21 Oct 01:28:47 01:32:32 28° 265° (W) 01:36:19 145.980
QB50P2 21 Oct 01:33:04 01:37:00 37° 291° (WNW) 01:40:54 145.880/145.840
50 SAT 21 Oct 01:34:50 01:38:03 61° 258° (WSW) 01:41:19 437.505
NANOSAT C BR1 21 Oct 01:35:40 01:39:41 42° 290° (WNW) 01:43:40 145.865
Gurwin Techsat 1B 21 Oct 01:39:48 01:43:41 20° 91° (E) 01:47:32 435.225
DUCHIFAT 1 21 Oct 01:46:09 01:50:05 37° 291° (WNW) 01:53:58 145.980
BUGSAT 1 21 Oct 01:51:23 01:55:38 69° 103° (ESE) 01:59:48 437.445
MOZHAYETS 4 21 Oct 02:05:28 02:08:57 21° 63° (ENE) 02:12:26
DX 1 21 Oct 02:33:37 02:37:01 22° 266° (W) 02:40:26 434.975-435.025
ITUPSAT 1 21 Oct 02:39:05 02:43:33 40° 68° (ENE) 02:48:03 437.325
M-CUBED/EXP-1 PRIME 21 Oct 02:42:05 02:45:37 63° 108° (ESE) 02:49:22 437.505
Oscar 19 21 Oct 02:42:31 02:47:40 85° 287° (WNW) 02:52:47 437.125/150
BEESAT 21 Oct 02:53:56 02:58:37 56° 71° (ENE) 03:03:19 436.000
UKube-1 21 Oct 02:56:39 02:59:50 20° 267° (W) 03:03:01 .
NO-84 21 Oct 03:02:31 03:06:27 35° 134° (SE) 03:10:21 435.350 FM
RS-15 21 Oct 03:11:37 03:23:29 49° 324° (NW) 03:35:14 29.354- 29.394
ITAMSAT 1 21 Oct 03:17:58 03:20:53 15° 89° (E) 03:23:47 435.822/435.867
Gurwin Techsat 1B 21 Oct 03:18:47 03:24:02 60° 289° (WNW) 03:29:15 435.225
BUGSAT 1 21 Oct 03:28:16 03:30:25 14° 300° (WNW) 03:32:33 437.445
KKS-1 21 Oct 03:30:29 03:31:53 11° 57° (ENE) 03:33:18 437.445
MOZHAYETS 4 21 Oct 03:41:18 03:45:47 48° 261° (W) 03:50:17
CUBESAT XI-V 21 Oct 03:54:03 03:58:34 55° 72° (ENE) 04:03:05 437.345
AO-7 21 Oct 04:04:03 04:12:06 50° 101° (E) 04:20:06 .
ITUPSAT 1 21 Oct 04:17:31 04:21:30 26° 266° (W) 04:25:30 437.325
M-CUBED/EXP-1 PRIME 21 Oct 04:18:16 04:19:41 12° 303° (WNW) 04:21:07 437.505
Oscar 19 21 Oct 04:23:45 04:26:12 14° 304° (NW) 04:28:38 437.125/150
BEESAT 21 Oct 04:33:26 04:36:44 18° 269° (W) 04:40:03 436.000
O/OREOS (USA 219) 21 Oct 04:39:24 04:41:10 12° 43° (NE) 04:42:54 437.305
NO-84 21 Oct 04:39:37 04:43:48 50° 331° (NNW) 04:47:53 435.350 FM
ITAMSAT 1 21 Oct 04:55:41 05:00:57 78° 286° (WNW) 05:06:10 435.822/435.867
Gurwin Techsat 1B 21 Oct 05:02:18 05:02:54 10° 308° (NW) 05:03:29 435.225
KKS-1 21 Oct 05:03:17 05:07:43 87° 75° (ENE) 05:12:12 437.445
DOVE 4 21 Oct 05:25:05 05:29:38 34° 96° (E) 05:34:21 437.250
RS-15 21 Oct 05:29:17 05:39:49 31° 357° (N) 05:50:03 29.354- 29.394
CUBESAT XI-V 21 Oct 05:33:12 05:36:16 17° 269° (W) 05:39:21 437.345
STARS 21 Oct 05:34:01 05:38:24 76° 73° (ENE) 05:42:50 437.465
XW-2F 21 Oct 05:53:39 05:54:53 11° 89° (E) 05:56:08 145.980 - 146.000
AO-7 21 Oct 05:57:05 06:04:45 44° 301° (WNW) 06:12:26 .
LilacSat-2 21 Oct 05:59:29 06:01:49 16° 91° (E) 06:04:08 437.200
NUDT-PHONESAT 21 Oct 06:03:46 06:04:45 11° 89° (E) 06:05:44 437.300
XW-2D 21 Oct 06:05:30 06:08:05 17° 92° (E) 06:10:38 145.860 - 145.880
SO-50 21 Oct 06:14:16 06:17:47 23° 114° (ESE) 06:21:20 436.795
O/OREOS (USA 219) 21 Oct 06:16:50 06:21:28 72° 64° (ENE) 06:26:02 437.305
NO-84 21 Oct 06:18:29 06:21:56 24° 352° (N) 06:25:15 435.350 FM
XW-2B 21 Oct 06:18:36 06:21:40 23° 95° (E) 06:24:41 145.730 - 145.750
ITAMSAT 1 21 Oct 06:37:13 06:39:34 13° 306° (NW) 06:41:55 435.822/435.867
STRAND 1 21 Oct 06:39:38 06:44:21 38° 67° (ENE) 06:49:06 437.568
XW-2C 21 Oct 06:41:30 06:45:06 44° 99° (E) 06:48:41 145.795 - 145.815
KKS-1 21 Oct 06:44:25 06:44:53 10° 273° (W) 06:45:22 437.445
PCSat 21 Oct 06:57:50 06:59:19 11° 101° (ESE) 07:00:48 145.827
HO-68 21 Oct 06:58:30 07:04:19 25° 92° (E) 07:10:03 435.675
DOVE 4 21 Oct 07:02:50 07:07:15 33° 292° (WNW) 07:11:51 437.250
CUTE-I 21 Oct 07:09:57 07:15:20 66° 103° (ESE) 07:20:39 437.470
STARS 21 Oct 07:13:42 07:15:16 12° 272° (W) 07:16:51 437.465
FO-29 21 Oct 07:17:03 07:20:26 17° 55° (NE) 07:23:59 435.910
CUBEBUG 2 21 Oct 07:21:10 07:24:26 19° 90° (E) 07:27:36 437.445
KAITUO 1B 21 Oct 07:22:26 07:26:09 79° 283° (WNW) 07:29:49 145.475/437.950
XW-2F 21 Oct 07:25:42 07:29:22 56° 286° (WNW) 07:33:00 145.980 - 146.000
LilacSat-2 21 Oct 07:32:44 07:36:18 41° 288° (WNW) 07:39:49 437.200
NUDT-PHONESAT 21 Oct 07:35:23 07:38:59 56° 286° (WNW) 07:42:33 437.300
XW-2D 21 Oct 07:38:56 07:42:23 36° 289° (WNW) 07:45:49 145.860 - 145.880
RS-15 21 Oct 07:44:59 07:56:25 43° 31° (NNE) 08:07:17 29.354- 29.394
YUBILEINY 21 Oct 07:46:53 07:51:25 15° 73° (ENE) 07:55:57 435.215
CUTE 1.7 + AOD 2 21 Oct 07:47:37 07:51:45 53° 100° (E) 07:55:51 437.475
AO-7 21 Oct 07:52:21 07:55:23 13° 325° (NW) 07:58:27 .
XW-2B 21 Oct 07:52:37 07:55:49 27° 292° (WNW) 07:58:59 145.730 - 145.750
SEEDS 21 Oct 07:53:15 07:57:09 38° 98° (E) 08:01:02 437.485
SO-50 21 Oct 07:53:36 07:57:57 48° 312° (NW) 08:02:21 436.795
NO-84 21 Oct 07:56:51 08:00:19 26° 13° (NNE) 08:03:36 435.350 FM
UWE-3 21 Oct 07:57:13 08:00:53 24° 93° (E) 08:04:28 435.000/436.395/437.385
O/OREOS (USA 219) 21 Oct 07:58:01 08:00:14 13° 262° (W) 08:02:27 437.305
UNISAT 6 21 Oct 08:08:37 08:09:50 11° 56° (ENE) 08:11:03 437.425
Oscar 11 21 Oct 08:10:34 08:11:18 10° 87° (E) 08:12:03 .
AAUSAT CUBESAT 2 21 Oct 08:14:45 08:18:22 29° 95° (E) 08:21:59 437.432
XW-2C 21 Oct 08:16:41 08:18:57 16° 296° (WNW) 08:21:13 145.795 - 145.815
STRAND 1 21 Oct 08:19:06 08:23:35 30° 265° (W) 08:28:07 437.568
TIGRISAT 21 Oct 08:21:57 08:24:15 14° 58° (ENE) 08:26:33 435.000
PCSat 21 Oct 08:36:21 08:41:45 75° 119° (ESE) 08:47:11 145.827
HO-68 21 Oct 08:45:26 08:52:36 69° 291° (WNW) 08:59:44 435.675
AO-73 21 Oct 08:46:07 08:50:10 36° 97° (E) 08:54:05 145.935
CUTE-I 21 Oct 08:51:00 08:54:52 21° 301° (WNW) 08:58:44 437.470
XW-2A 21 Oct 08:55:29 08:58:48 62° 285° (WNW) 09:02:05 145.665 - 145.685
CUBEBUG 2 21 Oct 08:56:49 09:01:21 51° 288° (WNW) 09:05:44 437.445
PRISM 21 Oct 08:56:57 08:58:38 12° 60° (ENE) 09:00:21 437.425
FO-29 21 Oct 08:59:29 09:04:44 79° 257° (WSW) 09:10:29 435.910
ZACube-1 21 Oct 09:08:31 09:12:56 71° 102° (ESE) 09:17:11 437.345
CUTE 1.7 + AOD 2 21 Oct 09:24:32 09:27:10 16° 297° (WNW) 09:29:48 437.475
SEEDS 21 Oct 09:29:26 09:32:36 21° 295° (WNW) 09:35:47 437.485
UWE-3 21 Oct 09:33:16 09:37:26 37° 291° (WNW) 09:41:29 435.000/436.395/437.385
nSIGHT-1 21 Oct 09:33:41 09:36:11 21° 138° (SE) 09:38:42 .
NO-84 21 Oct 09:34:17 09:38:15 76° 34° (NE) 09:41:52 435.350 FM
DELFI C3 21 Oct 09:34:53 09:37:40 18° 92° (E) 09:40:27 145.870
SO-50 21 Oct 09:37:29 09:39:30 13° 334° (NNW) 09:41:31 436.795
YUBILEINY 21 Oct 09:37:56 09:46:34 74° 94° (E) 09:55:17 435.215
UNISAT 6 21 Oct 09:41:02 09:45:42 77° 74° (ENE) 09:50:25 437.425
Oscar 11 21 Oct 09:43:41 09:48:00 81° 285° (WNW) 09:52:18 .
AAUSAT CUBESAT 2 21 Oct 09:50:16 09:53:44 27° 293° (WNW) 09:57:12 437.432
TIGRISAT 21 Oct 09:55:34 10:00:14 85° 256° (WSW) 10:04:59 435.000
RS-15 21 Oct 09:58:08 10:10:08 80° 239° (WSW) 10:21:26 29.354- 29.394
EO-88 21 Oct 10:05:12 10:07:54 19° 93° (E) 10:10:35 145.990 - 145.960
ISS 21 Oct 10:08:15 10:11:17 37° 143° (SE) 10:14:20 437.550
Max Valier Satellite 21 Oct 10:16:40 10:20:06 36° 98° (E) 10:23:30 145.860
PCSat 21 Oct 10:21:25 10:25:44 24° 320° (NW) 10:30:04 145.827
AO-73 21 Oct 10:22:41 10:26:12 24° 295° (WNW) 10:29:37 145.935
EO-79 21 Oct 10:28:48 10:30:47 13° 60° (ENE) 10:32:45 145.935-145.965
PRISM 21 Oct 10:29:19 10:33:20 72° 256° (WSW) 10:37:25 437.425
POLYITAN 1 21 Oct 10:33:23 10:35:45 15° 60° (ENE) 10:38:06 437.675
HO-68 21 Oct 10:34:52 10:39:05 17° 312° (NW) 10:43:18 435.675
ZACube-1 21 Oct 10:46:22 10:48:36 14° 300° (WNW) 10:50:49 437.345
QB50P2 21 Oct 10:52:28 10:55:53 24° 65° (ENE) 10:59:19 145.880/145.840
NANOSAT C BR1 21 Oct 10:54:57 10:58:07 21° 64° (ENE) 11:01:18 145.865
AIST 2D 21 Oct 11:04:05 11:07:34 66° 75° (ENE) 11:11:02 435.315
DUCHIFAT 1 21 Oct 11:04:54 11:08:15 23° 65° (ENE) 11:11:36 145.980
DELFI C3 21 Oct 11:08:53 11:12:34 39° 289° (WNW) 11:16:16 145.870
nSIGHT-1 21 Oct 11:09:03 11:12:13 64° 335° (NNW) 11:15:25 .
NO-84 21 Oct 11:12:43 11:15:07 16° 234° (SW) 11:17:24 435.350 FM
UNISAT 6 21 Oct 11:20:48 11:22:57 13° 272° (W) 11:25:06 437.425
